�������l�o���
Date,Time,MP-1(��Sv/h),MP-2(��Sv/h),MP-3(��Sv/h),MP-4(��Sv/h),MP-5(��Sv/h),MP-6(��Sv/h),MP-7(��Sv/h),MP-8(��Sv/h),����,����(m/s),���J
2022/07/06,00:00,0.602,0.884,0.561,1.073,0.763,0.348,0.609,0.572,�k,1.4,��
2022/07/06,00:10,0.602,0.885,0.560,1.074,0.765,0.350,0.609,0.571,�k�k��,1.4,��
2022/07/06,00:20,0.601,0.885,0.561,1.072,0.765,0.349,0.609,0.572,-,CALM,��
2022/07/06,00:30,0.602,0.885,0.560,1.073,0.765,0.347,0.609,0.570,�k,2.0,��
2022/07/06,00:40,0.601,0.884,0.560,1.071,0.764,0.348,0.610,0.572,�k�k��,2.8,��
2022/07/06,00:50,0.600,0.884,0.559,1.073,0.764,0.348,0.608,0.571,�k�k��,3.5,��
2022/07/06,01:00,0.600,0.887,0.559,1.073,0.764,0.348,0.610,0.570,�k,3.3,��
2022/07/06,01:10,0.601,0.882,0.558,1.073,0.765,0.346,0.608,0.571,�k��,0.6,��
2022/07/06,01:20,0.600,0.884,0.558,1.076,0.764,0.348,0.608,0.572,�k�k��,1.4,�L
2022/07/06,01:30,0.600,0.883,0.559,1.071,0.763,0.347,0.608,0.571,�k,2.2,�L
2022/07/06,01:40,0.600,0.883,0.560,1.074,0.764,0.347,0.608,0.571,�k�k��,3.0,�L
2022/07/06,01:50,0.600,0.883,0.559,1.071,0.763,0.349,0.607,0.571,�k,3.7,�L
2022/07/06,02:00,0.600,0.882,0.560,1.072,0.764,0.347,0.609,0.571,�k,3.6,�L
2022/07/06,02:10,0.600,0.884,0.559,1.073,0.764,0.348,0.609,0.571,�k,3.6,�L
2022/07/06,02:20,0.602,0.882,0.558,1.073,0.763,0.349,0.609,0.571,�k�k��,2.6,�L
2022/07/06,02:30,0.601,0.882,0.560,1.072,0.764,0.349,0.606,0.570,�k,2.8,�L
2022/07/06,02:40,0.600,0.883,0.558,1.074,0.765,0.349,0.605,0.570,�k,3.4,�L
2022/07/06,02:50,0.600,0.883,0.560,1.074,0.762,0.348,0.606,0.569,�k,3.7,�L
2022/07/06,03:00,0.600,0.880,0.559,1.073,0.762,0.347,0.606,0.570,�k,3.8,��
2022/07/06,03:10,0.602,0.881,0.557,1.072,0.761,0.346,0.606,0.569,�k,3.2,��
2022/07/06,03:20,0.600,0.881,0.557,1.072,0.760,0.349,0.603,0.568,�k�k��,2.5,��
2022/07/06,03:30,0.599,0.883,0.557,1.073,0.760,0.348,0.604,0.569,�k�k��,2.0,��
2022/07/06,03:40,0.600,0.880,0.556,1.072,0.762,0.347,0.605,0.569,�k,1.7,��
2022/07/06,03:50,0.599,0.883,0.558,1.070,0.762,0.347,0.604,0.569,�k�k��,1.5,�L
2022/07/06,04:00,0.598,0.882,0.557,1.072,0.761,0.347,0.604,0.569,�k,2.6,�L
2022/07/06,04:10,0.600,0.880,0.557,1.072,0.760,0.346,0.604,0.568,�k�k��,3.0,�L
2022/07/06,04:20,0.600,0.880,0.559,1.072,0.760,0.348,0.603,0.567,�k,3.7,�L
2022/07/06,04:30,0.600,0.883,0.558,1.071,0.761,0.346,0.604,0.567,�k�k��,3.8,�L
2022/07/06,04:40,0.600,0.882,0.558,1.074,0.761,0.347,0.604,0.566,�k�k��,3.7,�L
2022/07/06,04:50,0.598,0.880,0.557,1.070,0.757,0.347,0.605,0.567,�k�k��,4.9,��
2022/07/06,05:00,0.600,0.880,0.557,1.072,0.760,0.346,0.605,0.567,�k�k��,5.0,��
2022/07/06,05:10,0.600,0.882,0.558,1.074,0.762,0.347,0.603,0.567,�k�k��,5.2,��
2022/07/06,05:20,0.600,0.883,0.557,1.072,0.761,0.347,0.602,0.569,�k�k��,5.7,��
2022/07/06,05:30,0.599,0.882,0.559,1.070,0.761,0.346,0.604,0.569,�k�k��,5.2,��
2022/07/06,05:40,0.600,0.881,0.558,1.072,0.760,0.346,0.603,0.567,�k�k��,5.8,��
2022/07/06,05:50,0.599,0.882,0.556,1.073,0.758,0.346,0.604,0.567,�k�k��,4.1,��
2022/07/06,06:00,0.599,0.880,0.558,1.073,0.761,0.346,0.602,0.567,�k,4.6,��
2022/07/06,06:10,0.599,0.883,0.558,1.072,0.761,0.346,0.603,0.566,�k�k��,5.4,��
2022/07/06,06:20,0.600,0.882,0.558,1.072,0.761,0.344,0.603,0.568,�k�k��,6.1,��
2022/07/06,06:30,0.598,0.879,0.558,1.072,0.760,0.346,0.603,0.568,�k,5.4,��
2022/07/06,06:40,0.600,0.880,0.557,1.073,0.760,0.345,0.603,0.568,�k,3.8,�L
2022/07/06,06:50,0.600,0.879,0.556,1.072,0.760,0.346,0.601,0.567,�k,5.2,�L
2022/07/06,07:00,0.598,0.881,0.558,1.070,0.761,0.346,0.601,0.567,�k,5.2,�L
2022/07/06,07:10,0.599,0.878,0.556,1.070,0.760,0.345,0.602,0.568,�k,5.2,�L
2022/07/06,07:20,0.596,0.877,0.558,1.071,0.762,0.345,0.601,0.566,�k�k��,4.2,�L
2022/07/06,07:30,0.597,0.880,0.557,1.072,0.758,0.345,0.602,0.565,�k�k��,3.6,�L
2022/07/06,07:40,0.597,0.879,0.555,1.072,0.760,0.346,0.602,0.566,�k,3.7,��
2022/07/06,07:50,0.599,0.876,0.557,1.072,0.760,0.345,0.602,0.567,�k�k��,4.2,�L
2022/07/06,08:00,0.599,0.878,0.556,1.072,0.760,0.346,0.602,0.566,�k�k��,4.3,�L
2022/07/06,08:10,0.597,0.876,0.556,1.071,0.758,0.343,0.601,0.566,�k�k��,4.6,�L
2022/07/06,08:20,0.599,0.876,0.555,1.072,0.757,0.344,0.601,0.567,�k�k��,4.3,�L
2022/07/06,08:30,0.596,0.871,0.555,1.070,0.757,0.346,0.599,0.563,�k�k��,4.5,�L
2022/07/06,08:40,0.594,0.871,0.553,1.069,0.754,0.344,0.600,0.565,�k�k��,4.9,�L
2022/07/06,08:50,0.593,0.871,0.553,1.068,0.753,0.345,0.600,0.565,�k�k��,4.8,�L
2022/07/06,09:00,0.594,0.869,0.550,1.065,0.751,0.344,0.601,0.565,�k�k��,5.0,�L
2022/07/06,09:10,0.595,0.867,0.550,1.064,0.752,0.344,0.599,0.565,�k�k��,4.7,�L
2022/07/06,09:20,0.593,0.866,0.550,1.063,0.750,0.344,0.600,0.565,�k,5.0,�L
2022/07/06,09:30,0.593,0.868,0.549,1.062,0.750,0.345,0.600,0.564,�k,4.8,�L
2022/07/06,09:40,0.593,0.870,0.549,1.061,0.749,0.343,0.600,0.563,�k,3.8,�L
2022/07/06,09:50,0.593,0.866,0.548,1.063,0.750,0.344,0.600,0.564,�k,3.8,��
2022/07/06,10:00,0.594,0.866,0.547,1.062,0.750,0.344,0.599,0.565,�k,4.0,��
2022/07/06,10:10,0.594,0.866,0.551,1.062,0.751,0.345,0.599,0.565,�k�k��,4.8,�L
2022/07/06,10:20,0.594,0.865,0.551,1.059,0.750,0.344,0.600,0.566,�k�k��,5.2,�L
2022/07/06,10:30,0.593,0.866,0.551,1.062,0.749,0.344,0.600,0.567,�k�k��,5.7,�L
2022/07/06,10:40,0.593,0.867,0.549,1.060,0.748,0.343,0.599,0.565,�k�k��,5.9,�L
2022/07/06,10:50,0.594,0.866,0.551,1.060,0.747,0.342,0.598,0.563,�k�k��,6.3,�L
2022/07/06,11:00,0.593,0.867,0.550,1.058,0.744,0.342,0.597,0.563,�k�k��,6.5,�L
2022/07/06,11:10,0.591,0.860,0.548,1.059,0.742,0.343,0.598,0.563,�k�k��,6.7,�L
2022/07/06,11:20,0.589,0.862,0.547,1.058,0.743,0.343,0.599,0.563,�k�k��,6.3,�L
2022/07/06,11:30,0.592,0.862,0.547,1.055,0.741,0.343,0.599,0.562,�k�k��,6.3,�L
2022/07/06,11:40,0.590,0.860,0.547,1.057,0.742,0.342,0.598,0.563,�k�k��,6.5,�L
2022/07/06,11:50,0.591,0.863,0.549,1.056,0.741,0.343,0.598,0.563,�k�k��,6.9,��
2022/07/06,12:00,0.591,0.863,0.547,1.057,0.741,0.343,0.598,0.563,�k��,6.1,��
2022/07/06,12:10,0.591,0.863,0.545,1.057,0.743,0.342,0.598,0.563,�k��,6.4,�L
2022/07/06,12:20,0.590,0.859,0.545,1.058,0.744,0.343,0.597,0.564,�k��,5.5,�L
2022/07/06,12:30,0.590,0.861,0.545,1.053,0.743,0.342,0.596,0.561,�k��,5.2,�L
2022/07/06,12:40,0.585,0.854,0.542,1.050,0.737,0.341,0.596,0.560,�k��,4.3,�L
2022/07/06,12:50,0.584,0.849,0.540,1.047,0.732,0.340,0.595,0.560,�k�k��,3.8,�L
2022/07/06,13:00,0.581,0.847,0.539,1.042,0.730,0.340,0.593,0.560,�k�k��,4.4,�L
2022/07/06,13:10,0.583,0.842,0.537,1.043,0.729,0.339,0.593,0.558,�k��,4.0,�L
2022/07/06,13:20,0.584,0.843,0.538,1.038,0.728,0.339,0.593,0.559,�k��,3.2,�L
2022/07/06,13:30,0.582,0.840,0.536,1.034,0.726,0.337,0.593,0.558,���k��,3.3,�L
2022/07/06,13:40,0.578,0.836,0.536,1.033,0.723,0.339,0.590,0.557,���k��,4.1,�L
2022/07/06,13:50,0.577,0.835,0.536,1.029,0.722,0.337,0.589,0.557,�k��,5.0,�L
2022/07/06,14:00,0.576,0.832,0.534,1.027,0.722,0.335,0.589,0.557,���k��,3.4,�L
2022/07/06,14:10,0.574,0.829,0.534,1.024,0.719,0.336,0.589,0.557,���k��,2.2,�L
2022/07/06,14:20,0.572,0.828,0.532,1.022,0.716,0.334,0.587,0.554,���k��,2.8,�L
2022/07/06,14:30,0.571,0.826,0.530,1.016,0.714,0.334,0.587,0.555,��쐼,3.8,�L
2022/07/06,14:40,0.573,0.825,0.531,1.018,0.715,0.333,0.585,0.553,���쓌,1.1,�L
2022/07/06,14:50,0.574,0.825,0.530,1.017,0.715,0.334,0.586,0.553,�k�k��,2.0,�L
2022/07/06,15:00,0.572,0.829,0.532,1.019,0.716,0.334,0.587,0.554,���k��,2.6,�L
2022/07/06,15:10,0.573,0.828,0.531,1.019,0.716,0.335,0.588,0.554,���k��,2.0,�L
2022/07/06,15:20,0.572,0.827,0.532,1.018,0.716,0.334,0.588,0.554,���k��,3.9,�L
2022/07/06,15:30,0.571,0.826,0.530,1.020,0.719,0.334,0.589,0.554,�k��,2.3,�L
2022/07/06,15:40,0.573,0.825,0.529,1.020,0.716,0.336,0.588,0.554,���k��,1.4,�L
2022/07/06,15:50,0.572,0.827,0.530,1.021,0.716,0.335,0.588,0.554,���k��,2.2,�L
2022/07/06,16:00,0.571,0.829,0.532,1.022,0.718,0.336,0.588,0.554,�k��,2.2,�L
2022/07/06,16:10,0.574,0.829,0.532,1.021,0.718,0.337,0.588,0.555,�k��,2.5,�L
2022/07/06,16:20,0.572,0.828,0.530,1.020,0.716,0.336,0.588,0.555,���k��,1.9,�L
2022/07/06,16:30,0.570,0.826,0.529,1.020,0.714,0.335,0.587,0.554,�k,1.7,�L
2022/07/06,16:40,0.570,0.827,0.530,1.018,0.715,0.336,0.587,0.554,�k��,2.3,�L
2022/07/06,16:50,0.570,0.826,0.530,1.017,0.716,0.336,0.587,0.554,�k��,2.5,�L
2022/07/06,17:00,0.574,0.826,0.528,1.017,0.715,0.337,0.587,0.552,�k�k��,2.3,�L
2022/07/06,17:10,0.571,0.825,0.528,1.017,0.714,0.335,0.589,0.555,�k�k��,2.2,�L
2022/07/06,17:20,0.570,0.827,0.528,1.015,0.715,0.335,0.588,0.554,�k�k��,2.3,�L
2022/07/06,17:30,0.572,0.828,0.529,1.015,0.715,0.337,0.589,0.554,�k�k��,3.0,��
2022/07/06,17:40,0.572,0.827,0.530,1.017,0.716,0.336,0.587,0.554,�k�k��,2.8,��
2022/07/06,17:50,0.572,0.829,0.529,1.018,0.717,0.337,0.589,0.554,�k,2.8,��
2022/07/06,18:00,0.571,0.828,0.531,1.018,0.717,0.336,0.589,0.554,�k,3.2,��
2022/07/06,18:10,0.571,0.829,0.530,1.019,0.717,0.337,0.588,0.555,�k,2.9,��
2022/07/06,18:20,0.571,0.831,0.531,1.018,0.718,0.337,0.589,0.556,�k,3.4,��
2022/07/06,18:30,0.573,0.830,0.530,1.019,0.718,0.337,0.590,0.556,�k,3.8,��
2022/07/06,18:40,0.571,0.832,0.532,1.020,0.718,0.336,0.589,0.555,�k,4.1,�L
2022/07/06,18:50,0.573,0.831,0.531,1.019,0.718,0.335,0.590,0.557,�k,3.3,�L
2022/07/06,19:00,0.571,0.829,0.532,1.017,0.720,0.336,0.589,0.555,�k,3.5,�L
2022/07/06,19:10,0.571,0.830,0.531,1.019,0.720,0.337,0.590,0.555,�k�k��,3.9,�L
2022/07/06,19:20,0.573,0.829,0.530,1.018,0.719,0.338,0.589,0.557,�k,3.6,�L
2022/07/06,19:30,0.573,0.828,0.531,1.020,0.721,0.337,0.590,0.555,�k,3.2,�L
2022/07/06,19:40,0.571,0.829,0.531,1.016,0.718,0.337,0.589,0.556,�k,3.2,�L
2022/07/06,19:50,0.571,0.828,0.529,1.018,0.717,0.337,0.590,0.556,�k�k��,4.0,�L
2022/07/06,20:00,0.571,0.829,0.532,1.018,0.717,0.338,0.590,0.555,�k�k��,4.0,�L
2022/07/06,20:10,0.570,0.830,0.531,1.015,0.715,0.336,0.589,0.555,�k�k��,4.2,�L
2022/07/06,20:20,0.570,0.828,0.532,1.011,0.716,0.337,0.588,0.556,�k�k��,3.8,�L
2022/07/06,20:30,0.570,0.830,0.530,1.012,0.715,0.338,0.589,0.555,�k�k��,5.3,�L
2022/07/06,20:40,0.570,0.826,0.530,1.011,0.714,0.336,0.588,0.554,�k�k��,4.5,�L
2022/07/06,20:50,0.570,0.826,0.530,1.012,0.713,0.336,0.589,0.555,�k�k��,5.0,�L
2022/07/06,21:00,0.569,0.826,0.532,1.011,0.716,0.335,0.587,0.555,�k,5.6,�L
2022/07/06,21:10,0.568,0.826,0.531,1.012,0.712,0.337,0.587,0.555,�k,5.9,�L
2022/07/06,21:20,0.568,0.824,0.530,1.011,0.715,0.337,0.587,0.555,�k,6.1,�L
2022/07/06,21:30,0.570,0.829,0.528,1.010,0.714,0.336,0.587,0.554,�k,5.8,�L
2022/07/06,21:40,0.568,0.826,0.530,1.011,0.715,0.335,0.586,0.554,�k,6.6,�L
2022/07/06,21:50,0.569,0.826,0.528,1.009,0.713,0.336,0.585,0.555,�k,6.9,�L
2022/07/06,22:00,0.568,0.828,0.530,1.010,0.714,0.336,0.585,0.554,�k�k��,6.8,�L
2022/07/06,22:10,0.567,0.827,0.528,1.009,0.712,0.335,0.586,0.554,�k,7.5,�L
2022/07/06,22:20,0.568,0.824,0.528,1.005,0.712,0.336,0.584,0.553,�k,8.0,�L
2022/07/06,22:30,0.569,0.823,0.528,1.004,0.713,0.336,0.584,0.553,�k,9.1,�L
2022/07/06,22:40,0.569,0.825,0.527,1.006,0.712,0.335,0.584,0.555,�k,9.0,�L
2022/07/06,22:50,0.567,0.825,0.528,1.005,0.714,0.335,0.584,0.554,�k,8.8,�L
2022/07/06,23:00,0.568,0.826,0.527,1.007,0.713,0.336,0.585,0.554,�k,8.7,�L
2022/07/06,23:10,0.568,0.826,0.528,1.007,0.714,0.336,0.584,0.555,�k,7.5,�L
2022/07/06,23:20,0.567,0.822,0.525,1.005,0.713,0.335,0.583,0.554,�k,8.5,�L
2022/07/06,23:30,0.564,0.819,0.526,0.999,0.711,0.334,0.581,0.552,�k,8.8,�L
2022/07/06,23:40,0.560,0.816,0.525,0.996,0.705,0.333,0.581,0.552,�k,8.2,�L
2022/07/06,23:50,0.563,0.815,0.526,0.996,0.705,0.333,0.580,0.552,�k,7.8,�L
